User: anonymous
Location: Unspecified
(0.0000°N, 0.0000°E)
Time: 23:28:59
(UTC+00:00)
Language:

APRIZESAT 3 - Orbit

View from above orbital plane
View from above orbital plane
View from above satellite
View from above satellite

Ground track
Ground track

The orbit data is extracted from the following two-line orbital elements,

1 35686U 09041F   14258.83089655  .00001516  00000-0  17403-3 0  6208
2 35686 098.1557 207.4006 0076478 042.6622 009.3716 14.85370103277833
Epoch (UTC): 15 September 2014 19:56:29
Eccentricity: 0.0076478
inclination: 98.1557°
perigee height: 559 km
apogee height: 666 km
right ascension of ascending node: 207.4006°
argument of perigee: 42.6622°
revolutions per day: 14.85370103
mean anomaly at epoch: 9.3716°
orbit number at epoch: 27783

The dashed part of the orbit path shows where the satellite is in the earth's shadow,  

DLR